Location: Babbit Hill
(44.1915°N, 71.9351°W)
Time: 23:32:37
(UTC+00:00)

Daily predictions for brighter satellites

Satellite Brightness Start Highest point End
(mag) Time Altitude Azimuth Time Altitude Azimuth Time Altitude Azimuth
CENTAUR R/B 3.5 21:32:22 10° WSW 21:37:44 41° NW 21:44:25 10° NNE
Cosmos 1867 4.5 21:33:39 10° NNW 21:38:20 28° NE 21:42:59 10° E
Lacrosse 4 Rocket 3.3 21:36:29 10° WSW 21:39:45 23° NW 21:42:59 10° N
Cosmos 1315 Rocket 3.6 21:37:51 10° SSW 21:41:34 50° WNW 21:45:19 10° N
Cosmos 1092 Rocket 4.4 21:36:23 10° NNW 21:42:31 70° W 21:48:35 10° S
Cosmos 773 Rocket 4.0 21:39:18 10° NNW 21:44:27 61° ENE 21:49:39 10° SSE
Cosmos 1743 2.9 21:41:48 10° N 21:44:48 34° ENE 21:47:47 10° SE
Cosmos 2297 Rocket 2.4 21:40:52 10° NNW 21:46:25 51° ENE 21:51:54 10° SE
Cosmos 1758 Rocket 3.5 21:47:05 10° N 21:51:23 68° E 21:55:38 10° SSE
Cosmos 2098 Rocket 3.0 21:47:38 10° S 21:51:30 60° E 21:56:08 10° NNE
BREEZE-M DEB (TANK) 3.7 21:49:31 10° WNW 21:52:15 42° N 21:59:19 10° ENE
Intercosmos 24 3.6 21:49:49 10° N 21:53:37 88° E 21:57:11 10° S
Cosmos 2151 3.3 21:49:58 10° N 21:53:56 41° ENE 21:57:53 10° SSE
ARIANE 5 R/B 2.7 21:51:31 10° SE 21:56:20 47° ENE 22:01:13 10° N
Cosmos 1607 4.0 21:56:28 10° NNW 22:02:40 62° NE 22:08:52 10° SE
USA 215 4.4 21:57:39 10° NE 22:03:04 29° N 22:08:30 10° WNW
CZ-4C R/B 3.1 21:57:05 10° NNW 22:03:56 56° NE 22:12:22 10° SE
Cosmos 2208 Rocket 4.0 22:00:12 10° NNW 22:05:23 89° WSW 22:10:35 10° SSE
IGS 5A 3.8 22:02:08 10° S 22:06:03 64° W 22:10:00 10° NNW
SPOT 1/Viking Rocket 4.3 22:02:40 10° SE 22:07:07 30° ENE 22:11:34 10° N
Cosmos 1980 Rocket 3.5 22:06:28 10° SSE 22:10:33 21° E 22:13:23 15° ENE
Cosmos 1933 3.7 22:08:05 10° SSE 22:11:40 39° E 22:15:16 10° NNE
BlueWalker 3 2.4 22:10:00 10° WNW 22:13:35 58° SW 22:17:08 10° SE
SJ-12 3.7 22:10:32 10° SSE 22:14:13 55° ENE 22:17:56 10° N
Meteor 1-28 Rocket 4.2 22:11:08 10° N 22:14:19 40° WNW 22:17:26 10° SW
Cosmos 2266 Rocket 3.9 22:08:18 10° N 22:14:26 65° E 22:20:26 10° SSE
Cosmos 1626 Rocket 4.3 22:10:18 10° NNW 22:14:33 56° W 22:18:44 10° S
Cosmos 1076 Rocket 4.5 22:13:32 10° NNE 22:17:07 25° ENE 22:20:42 10° SE
NOSS 2-3 (E) 4.1 22:14:48 10° S 22:18:03 29° ESE 22:19:50 19° ENE
AQUARIUS 4.2 22:13:56 10° SSE 22:18:13 55° ENE 22:22:32 10° N
Cosmos 2084 Rocket 3.6 22:14:40 10° NNW 22:18:47 49° NE 22:22:52 10° ESE
NOSS 2-3 (D) 4.2 22:16:39 10° S 22:19:54 28° ESE 22:21:33 20° ENE
MOS 1 Rocket 3.5 22:15:12 10° SSE 22:19:55 56° ENE 22:24:57 10° N
Cosmos 1606 Rocket 3.7 22:16:52 10° SSE 22:21:06 49° E 22:25:23 10° NNE
CORIOLIS 4.4 22:17:36 10° S 22:22:54 75° WSW 22:28:16 10° NNW
Cosmos 2263 Rocket 3.0 22:19:22 10° N 22:24:14 28° NE 22:28:38 12° ESE
CZ-2D R/B 4.3 22:20:39 10° SE 22:24:16 29° ENE 22:27:51 10° N
Cosmos 783 Rocket 4.5 22:20:29 10° NNW 22:25:46 64° ENE 22:31:01 10° SSE
SOZ 3.5 22:23:12 10° WSW 22:26:04 83° NNW 22:26:49 34° NE
GEOS 3 Rocket 4.3 22:22:58 10° NNE 22:28:11 53° NW 22:33:24 10° WSW
Lacrosse 5 rocket 3.3 22:26:46 10° NW 22:28:52 14° NNW 22:30:45 11° NNE
COSMO-SKYMED 1 3.5 22:28:14 22° ENE 22:29:16 24° E 22:32:39 10° SSE
Cosmos 1900 4.3 22:26:19 10° NNW 22:31:19 63° NE 22:36:13 10° SE
Resurs 1-3 4.4 22:27:52 10° SE 22:31:32 28° ENE 22:35:12 10° N
SL-16 R/B 3.7 22:26:28 10° N 22:32:14 41° WNW 22:37:56 10° SW
Thor Agena Rocket 4.5 22:28:15 10° S 22:33:18 52° W 22:38:22 10° NNW
Cosmos 1461 3.0 22:30:04 10° SW 22:33:54 66° NW 22:36:44 18° NNE
Cosmos 2227 Rocket 2.2 22:32:04 10° NNW 22:37:39 57° ENE 22:43:11 10° SE
SJ-6F 4.2 22:36:23 10° SSE 22:40:20 82° ENE 22:44:22 10° N
NOSS 3-2 (C) 3.4 22:35:33 10° SW 22:40:30 67° NW 22:45:17 16° NNE
Cosmos 1503 Rocket 4.3 22:36:12 10° SSW 22:41:25 69° WNW 22:46:38 10° NNE
Okean 1-7 Rocket 3.6 22:38:17 10° N 22:42:42 81° W 22:47:02 10° S
Cosmos 1726 Rocket 3.6 22:41:35 10° S 22:46:11 69° E 22:50:44 10° NNE
SL-19 R/B 4.5 22:44:00 10° SE 22:49:02 44° ENE 22:54:19 10° N
BREEZE-M DEB (TANK) 4.3 22:41:08 10° SSW 22:49:38 34° SE 22:51:40 25° E
Cosmos 1354 Rocket 4.0 22:44:31 10° SSW 22:49:48 82° WNW 22:54:33 13° NNE
Cosmos 1697 Rocket 2.7 22:45:44 10° SSW 22:51:20 85° WNW 22:55:57 16° NNE
USA 290 4.3 22:50:03 10° NW 22:52:56 30° WSW 22:55:49 10° SSW
SKYMED 2 3.4 22:51:14 17° NNE 22:54:32 72° ESE 22:58:51 10° S
Spot 4 Rocket 4.0 22:49:56 10° SSE 22:54:53 56° ENE 22:59:54 10° N
Meteor 2-20 4.4 22:51:58 10° S 22:58:03 68° E 23:04:10 10° NNE
ATLAS CENTAUR R/B 3.6 22:55:58 10° WNW 22:58:17 19° WSW 23:00:33 10° SSW
YAOGAN 1 2.5 22:55:26 10° SSE 22:59:35 56° ENE 23:03:46 10° N
IRAS Rocket 4.2 22:56:21 10° SE 23:01:40 54° ENE 23:07:00 10° N
EXPRESS MD2 3.7 22:59:11 10° SSW 23:01:13 35° SSE 23:01:13 35° SSE
Cosmos 1898 Rocket 3.9 22:59:06 10° S 23:03:50 39° ESE 23:04:01 38° E
NOAA 15 4.5 23:02:01 10° SSE 23:07:18 75° ENE 23:12:36 10° N
Gbstr 26 Del rocket 2.7 23:04:16 10° WSW 23:08:15 68° NNW 23:08:45 59° NNE
Meteor 2-10 4.0 23:06:46 10° N 23:12:06 64° ENE 23:17:35 10° SSE
Cosmos-2242 3.2 23:10:44 10° S 23:14:15 52° SE 23:14:15 52° SE
Cosmos 1953 Rocket 3.5 23:11:41 10° N 23:16:09 84° W 23:20:35 10° S
Cosmos 1655 Rocket 4.0 23:10:38 10° N 23:16:53 80° W 23:23:05 10° S
Meteor 2-20 Rocket 4.3 23:13:53 10° S 23:20:08 72° E 23:24:55 17° NNE
Cosmos 1867 4.1 23:16:53 10° NW 23:22:15 58° WSW 23:27:34 10° SSE
Cosmos 2082 4.3 23:18:20 10° NNW 23:22:44 39° NNE 23:22:44 39° NNE
Meteor 1-26 Rocket 4.0 23:18:37 10° S 23:23:59 68° E 23:25:18 49° NE
Helios 1A Rocket 4.3 23:26:12 22° S 23:26:12 22° S 23:27:33 10° SSW
Cosmos 372 Rocket 3.8 23:20:10 10° SSW 23:25:19 75° ESE 23:26:07 61° NE
Cosmos 1937 Rocket 4.2 23:20:40 10° S 23:24:07 35° SE 23:24:07 35° SE
Aureole 1 Rocket 3.1 23:23:49 10° SSW 23:28:00 88° ESE 23:28:37 69° NNE
Cosmos 2297 Rocket 4.4 23:25:34 10° NW 23:30:04 25° WSW 23:34:34 10° SSW
NOSS 2-3 (C) 4.1 23:31:21 10° SW 23:34:00 43° W 23:34:00 43° W
NOAA 6 3.9 23:35:11 10° SSE 23:40:18 85° WSW 23:45:26 10° NNW
USA 238 DEB 3.4 23:34:29 10° SW 23:40:34 83° NW 23:42:20 51° NNE
USA 81 4.3 23:35:22 10° N 23:40:35 66° W 23:45:48 10° S
USA 238 3.4 23:34:35 10° SW 23:40:40 84° NW 23:42:24 52° NNE
Cosmos 2058 Rocket 3.5 23:38:51 10° SSW 23:43:16 62° W 23:43:32 60° WNW
USA 215 3.9 23:44:52 38° NNE 23:45:00 38° NNE 23:50:57 10° NW
Cosmos 2219 3.2 23:42:17 10° NNW 23:47:30 71° N 23:47:30 71° N
BREEZE-M DEB (TANK) 4.2 23:46:07 10° SW 23:52:08 46° S 23:52:08 46° S
Cosmos 1980 Rocket 2.6 23:48:26 10° SW 23:54:01 61° WNW 23:55:10 50° NNW
